Weather History for PHNL - January, 2012

Change the Weather History Date:

Friday, January 13, 2012

  Actual Average Record
Temperature  
Mean Temperature 72 °F 73 °F  
Max Temperature 81 °F 80 °F 85 °F (1991)
Min Temperature 63 °F 66 °F 57 °F (1978)
Degree Days  
Heating Degree Days 0 0  
Month to date heating degree days 0 0  
Since 1 July heating degree days 0 0  
Cooling Degree Days 7 8  
Month to date cooling degree days 122 106  
Year to date cooling degree days 122 106  
Growing Degree Days 22 (Base 50)    
Moisture  
Dew Point 63 °F    
Average Humidity 76    
Maximum Humidity 93    
Minimum Humidity 58    
Precipitation  
Precipitation 0.00 in 0.08 in 2.15 in (1943)
Month to date precipitation T 1.15  
Year to date precipitation T 1.15  
Snow  
Snow 0.00 in - - ()
Month to date snowfall 0.0  
Since 1 July snowfall 0.0  
Snow Depth 0.00 in    
Sea Level Pressure  
Sea Level Pressure 29.88 in    
Wind  
Wind Speed 7 mph (WSW)    
Max Wind Speed 20 mph    
Max Gust Speed 25 mph    
Visibility 10 miles    
Events      
T = Trace of Precipitation, MM = Missing Value Source: NWS Daily Summary

Daily Weather History Graph

Daily Weather History Graph

Search for Another Location

Airport or City:

Trip Planner

Search our weather history database for the weather conditions in past years. The results will help you decide how hot, cold, wet, or windy it might be!

Date:

Astronomy

Jan. 13, 2012 Rise Set
Actual Time 7:11 AM HST 6:09 PM HST
Civil Twilight 6:47 AM HST 6:32 PM HST
Nautical Twilight 6:20 AM HST 7:00 PM HST
Astronomical Twilight 5:53 AM HST 7:27 PM HST
Moon 10:47 PM HST (1/13) 10:14 AM HST (1/13)
Length of Visible Light 11h 45m
Length of Day
10h 57m
Waning Gibbous, 77% of the Moon is Illuminated
Jan 13
Waning Gibbous
Jan 15
Last Quarter
Jan 22
New
Jan 30
First Quarter
Feb 7
Full

Hourly Weather History & Observations

Time (HST) Temp. Heat Index Dew Point Humidity Pressure Visibility Wind Dir Wind Speed Gust Speed Precip Events Conditions
12:53 AM 68.0 °F - 64.0 °F 87% 29.90 in 10.0 mi Calm Calm - N/A   Scattered Clouds
1:53 AM 68.0 °F - 64.0 °F 87% 29.89 in 10.0 mi Calm Calm - N/A   Scattered Clouds
2:53 AM 66.0 °F - 63.0 °F 90% 29.87 in 10.0 mi Calm Calm - N/A   Scattered Clouds
3:53 AM 68.0 °F - 64.0 °F 87% 29.86 in 10.0 mi NW 3.5 mph - N/A   Scattered Clouds
4:53 AM 64.9 °F - 62.1 °F 90% 29.86 in 10.0 mi Calm Calm - N/A   Partly Cloudy
5:53 AM 64.9 °F - 62.1 °F 90% 29.86 in 10.0 mi Calm Calm - N/A   Partly Cloudy
6:53 AM 64.0 °F - 62.1 °F 93% 29.88 in 10.0 mi Calm Calm - N/A   Scattered Clouds
7:53 AM 66.9 °F - 63.0 °F 87% 29.89 in 10.0 mi Calm Calm - N/A   Scattered Clouds
8:53 AM 73.0 °F - 64.0 °F 73% 29.90 in 10.0 mi SW 5.8 mph - N/A   Scattered Clouds
9:53 AM 75.9 °F - 66.0 °F 71% 29.91 in 10.0 mi SW 11.5 mph 16.1 mph N/A   Mostly Cloudy
10:53 AM 78.1 °F - 64.9 °F 64% 29.90 in 10.0 mi SW 13.8 mph - N/A   Scattered Clouds
11:53 AM 77.0 °F - 64.9 °F 66% 29.89 in 10.0 mi SW 15.0 mph - N/A   Mostly Cloudy
12:53 PM 79.0 °F - 66.0 °F 64% 29.85 in 10.0 mi SW 12.7 mph - N/A   Scattered Clouds
1:53 PM 80.1 °F 81.7 °F 64.0 °F 58% 29.84 in 10.0 mi SW 15.0 mph 25.3 mph N/A   Scattered Clouds
2:53 PM 80.1 °F 81.7 °F 64.0 °F 58% 29.83 in 10.0 mi WSW 16.1 mph - N/A   Mostly Cloudy
3:53 PM 77.0 °F - 62.1 °F 60% 29.84 in 10.0 mi West 13.8 mph - N/A   Scattered Clouds
4:53 PM 78.1 °F - 62.1 °F 58% 29.85 in 10.0 mi West 16.1 mph - N/A   Scattered Clouds
5:53 PM 75.0 °F - 61.0 °F 62% 29.87 in 10.0 mi West 10.4 mph - N/A   Scattered Clouds
6:53 PM 73.0 °F - 60.1 °F 64% 29.88 in 10.0 mi West 8.1 mph - N/A   Scattered Clouds
7:53 PM 72.0 °F - 60.1 °F 66% 29.90 in 10.0 mi West 3.5 mph - N/A   Partly Cloudy
8:53 PM 72.0 °F - 59.0 °F 64% 29.90 in 10.0 mi WNW 6.9 mph - N/A   Partly Cloudy
9:53 PM 69.1 °F - 60.1 °F 73% 29.91 in 10.0 mi Calm Calm - N/A   Scattered Clouds
10:53 PM 66.9 °F - 59.0 °F 76% 29.90 in 10.0 mi Calm Calm - N/A   Partly Cloudy
11:53 PM 66.0 °F - 59.0 °F 78% 29.89 in 10.0 mi NNW 4.6 mph - N/A   Partly Cloudy